High Yield Ag Solutions

Hybrid Corn Planting Forecast

Guide: OK to plant corn when 5-Day GDU Accumulation greater than or equal to 40 and GDU are trending up. Careful with minimum temperatures below 50 (highlighted in yellow).
Clarksdale, MS Greenwood, MS Leland, MS Yazoo City, MS Bainbridge, GA Newport, AR
Date Low Temp (F) GDU 5 Day GDU Accumulation Low Temp (F) GDU 5 Day GDU Accumulation Low Temp (F) GDU 5 Day GDU Accumulation Low Temp (F) GDU 5 Day GDU Accumulation Low Temp (F) GDU 5 Day GDU Accumulation Low Temp (F) GDU 5 Day GDU Accumulation
06/05/2019 77.0 34.0 147.0 71.0 29.00 138.0 72.0 29.00 139.0 52.0 22.00 93.0 76.0 35.00 152.0 74.0 32.00 132.0
06/06/2019 72.0 25.0 137.0 70.0 28.00 133.0 71.0 27.00 135.0 50.0 18.00 88.0 76.0 29.00 146.0 71.0 25.00 121.0
06/07/2019 72.0 30.0 135.0 70.0 28.00 123.0 68.0 27.00 130.0 48.0 16.00 85.0 73.0 30.00 149.0 70.0 25.00 115.0
06/08/2019 72.0 28.0 129.0 68.0 26.00 117.0 71.0 28.00 126.0 48.0 19.00 84.0 73.0 28.00 152.0 68.0 23.00 108.0
06/09/2019 72.0 30.0 124.0 68.0 27.00 112.0 69.0 28.00 120.0 48.0 18.00 79.0 73.0 30.00 154.0 66.0 27.00 103.0
06/10/2019 63.0 24.0 116.0 62.0 24.00 106.0 66.0 25.00 113.0 47.0 17.00 78.0 73.0 29.00 152.0 60.0 21.00 93.0
06/11/2019 61.0 23.0 126.0 56.0 18.00 113.0 61.0 22.00 120.0 40.0 15.00 84.0 72.0 32.00 154.0 56.0 19.00 99.0
06/12/2019 61.0 24.0 136.0 60.0 22.00 126.0 60.0 23.00 124.0 42.0 15.00 88.0 74.0 33.00 155.0 58.0 18.00 111.0
06/13/2019 61.0 23.0 142.0 58.0 21.00 133.0 60.0 22.00 128.0 43.0 14.00 88.0 72.0 30.00 154.0 57.0 18.00 119.0
06/14/2019 55.0 22.0 151.0 55.0 21.00 143.0 55.0 21.00 135.0 44.0 17.00 91.0 67.0 28.00 155.0 51.0 17.00 131.0
06/15/2019 72.0 34.0 163.0 70.0 31.00 151.0 71.0 32.00 144.0 58.0 23.00 89.0 71.0 31.00 160.0 67.0 27.00 145.0
06/16/2019 75.0 33.0 158.0 74.0 31.00 149.0 69.0 26.00 143.0 50.0 19.00 92.0 72.0 33.00 164.0 71.0 31.00 148.0
06/17/2019 70.0 30.0 158.0 71.0 29.00 152.0 68.0 27.00 152.0 47.0 15.00 107.0 75.0 32.00 167.0 67.0 26.00 151.0
06/18/2019 70.0 32.0 162.0 73.0 31.00 157.0 70.0 29.00 160.0 49.0 17.00 126.0 74.0 31.00 170.0 71.0 30.00 161.0
06/19/2019 73.0 34.0 163.0 69.0 29.00 161.0 69.0 30.00 165.0 48.0 15.00 142.0 75.0 33.00 175.0 71.0 31.00 165.0
06/20/2019 68.0 29.0 157.0 69.0 29.00 163.0 69.0 31.00 166.0 62.0 26.00 158.0 78.0 35.00 178.0 68.0 30.00 162.0
06/21/2019 71.0 33.0 157.0 75.0 34.00 163.0 76.0 35.00 164.0 76.0 34.00 161.0 79.0 36.00 179.0 72.0 34.00 161.0
06/22/2019 75.0 34.0 154.0 75.0 34.00 159.0 76.0 35.00 159.0 76.0 34.00 156.0 78.0 35.00 177.0 77.0 36.00 157.0
06/23/2019 75.0 33.0 150.0 75.0 35.00 155.0 75.0 34.00 155.0 75.0 33.00 152.0 76.0 36.00 176.0 76.0 34.00 151.0
06/24/2019 72.0 28.0 147.0 75.0 31.00 150.0 76.0 31.00 152.0 74.0 31.00 149.0 75.0 36.00 173.0 72.0 28.00 147.0
06/25/2019 70.0 29.0 148.0 72.0 29.00 149.0 71.0 29.00 151.0 72.0 29.00 146.0 77.0 36.00 170.0 68.0 29.00 149.0
06/26/2019 69.0 30.0 148.0 69.0 30.00 151.0 69.0 30.00 153.0 69.0 29.00 147.0 75.0 34.00 166.0 69.0 30.00 150.0
06/27/2019 69.0 30.0 148.0 69.0 30.00 152.0 71.0 31.00 154.0 71.0 30.00 148.0 74.0 34.00 164.0 69.0 30.00 151.0
06/28/2019 69.0 30.0 148.0 69.0 30.00 152.0 70.0 31.00 154.0 71.0 30.00 148.0 74.0 33.00 163.0 70.0 30.00 151.0
06/29/2019 69.0 29.0 148.0 70.0 30.00 152.0 70.0 30.00 154.0 69.0 28.00 148.0 75.0 33.00 162.0 70.0 30.00 151.0
06/30/2019 70.0 29.0 148.0 71.0 31.00 151.0 72.0 31.00 154.0 71.0 30.00 148.0 74.0 32.00 162.0 71.0 30.00 150.0
07/01/2019 72.0 30.0 148.0 72.0 31.00 150.0 73.0 31.00 153.0 73.0 30.00 146.0 74.0 32.00 163.0 72.0 31.00 149.0

This table shows the five-day forward looking GDU accumulation for previous and forecast weather observations. The GDU accumulation is for a row in the table and includes the next 4 days. Researchers recommend that when a location receives more than 40 accumulated GDUs hybrid corn can be planted. High Yield Ag Solutions and KTS Wireless do not warrant the success of any recommendation. Absolutely no warranties are made regarding the success of these recommendations for any particular purpose. User expressly assumes the risk of all factors, including but not limited to acts of God, drought, wind and rain damage, crop disease, and the like, which may affect these recommendations.